Powrót do katalogu

COSMOS 886 DEB

AktywnyLEO
NORAD 20673·DEBRIS·🇷🇺 Russia

Wystrzelony Dec 27, 1976 z Baikonur Cosmodrome

Loading…

Następne Przeloty (najbliższe 24 godziny)

TLE

ŚwieżeSource: Space-Track

Epoka: Sep 14, 2026, 10:08 UTC

1 20673U 76126CG  26257.42285192  .00009770  00000-0  10083-2 0  9992
2 20673  65.5613 307.6003 0245341 179.9517 180.1662 14.70853966740467

Śledź COSMOS 886 DEB w czasie rzeczywistym z AllMySat

Download on the App Store